Time,TemperatureF,DewpointF,PressureIn,WindDirection,WindDirectionDegrees,WindSpeedMPH,WindSpeedGustMPH,Humidity,HourlyPrecipIn,Conditions,Clouds,dailyrainin,SoftwareType,DateUTC
2013-02-17 00:01:00,30.4,16.6,29.75,North,358,1.0,2.0,56,0.00,,,0.00,Wunderground v.1.15,2013-02-17 05:01:00,
2013-02-17 00:02:00,30.4,16.1,29.75,NNW,344,3.0,3.0,55,0.00,,,0.00,Wunderground v.1.15,2013-02-17 05:02:00,
2013-02-17 00:06:00,30.3,16.0,29.76,NNW,348,2.0,3.0,55,0.00,,,0.00,Wunderground v.1.15,2013-02-17 05:06:00,
2013-02-17 00:12:00,30.2,15.5,29.76,NNE,24,0.0,3.0,54,0.00,,,0.00,Wunderground v.1.15,2013-02-17 05:12:00,
2013-02-17 00:16:00,30.2,16.0,29.76,NNW,331,1.0,3.0,55,0.00,,,0.00,Wunderground v.1.15,2013-02-17 05:16:00,
2013-02-17 00:21:00,30.2,16.0,29.75,North,352,2.0,3.0,55,0.00,,,0.00,Wunderground v.1.15,2013-02-17 05:21:00,
2013-02-17 00:27:00,30.1,15.9,29.75,North,355,1.0,3.0,55,0.00,,,0.00,Wunderground v.1.15,2013-02-17 05:27:00,
2013-02-17 00:36:00,30.0,15.3,29.75,NNW,348,3.0,3.0,54,0.00,,,0.00,Wunderground v.1.15,2013-02-17 05:36:00,
2013-02-17 00:42:00,29.9,14.8,29.74,NE,35,4.0,4.0,53,0.00,,,0.00,Wunderground v.1.15,2013-02-17 05:42:00,
2013-02-17 00:51:00,29.8,14.7,29.75,NNE,23,2.0,4.0,53,0.00,,,0.00,Wunderground v.1.15,2013-02-17 05:51:00,
2013-02-17 00:56:00,29.7,14.2,29.74,North,359,3.0,5.0,52,0.00,,,0.00,Wunderground v.1.15,2013-02-17 05:56:00,
2013-02-17 01:02:00,29.6,14.1,29.74,NNE,26,6.0,6.0,52,0.00,,,0.00,Wunderground v.1.15,2013-02-17 06:02:00,
2013-02-17 01:11:00,29.4,13.9,29.73,NNW,337,2.0,4.0,52,0.00,,,0.00,Wunderground v.1.15,2013-02-17 06:11:00,
2013-02-17 01:16:00,29.4,13.9,29.73,North,9,3.0,4.0,52,0.00,,,0.00,Wunderground v.1.15,2013-02-17 06:16:00,
2013-02-17 01:22:00,29.3,13.8,29.72,NNW,343,10.0,10.0,52,0.00,,,0.00,Wunderground v.1.15,2013-02-17 06:22:00,
2013-02-17 01:30:00,29.1,13.6,29.73,NNE,23,6.0,6.0,52,0.00,,,0.00,Wunderground v.1.15,2013-02-17 06:30:00,
2013-02-17 01:36:00,29.1,13.6,29.73,NNE,15,2.0,7.0,52,0.00,,,0.00,Wunderground v.1.15,2013-02-17 06:36:00,
2013-02-17 01:41:00,29.0,13.1,29.74,NNW,327,3.0,4.0,51,0.00,,,0.00,Wunderground v.1.15,2013-02-17 06:41:00,
2013-02-17 01:47:00,28.9,13.5,29.74,NNE,22,3.0,9.0,52,0.00,,,0.00,Wunderground v.1.15,2013-02-17 06:47:00,
2013-02-17 01:56:00,28.8,13.8,29.74,NE,40,2.0,6.0,53,0.00,,,0.00,Wunderground v.1.15,2013-02-17 06:56:00,
2013-02-17 02:01:00,28.7,13.3,29.75,NW,317,5.0,5.0,52,0.00,,,0.00,Wunderground v.1.15,2013-02-17 07:01:00,
2013-02-17 02:06:00,28.7,14.1,29.74,North,10,3.0,9.0,54,0.00,,,0.00,Wunderground v.1.15,2013-02-17 07:06:00,
2013-02-17 02:11:00,28.6,13.6,29.74,North,6,2.0,4.0,53,0.00,,,0.00,Wunderground v.1.15,2013-02-17 07:11:00,
2013-02-17 02:16:00,28.6,13.6,29.73,NE,35,3.0,8.0,53,0.00,,,0.00,Wunderground v.1.15,2013-02-17 07:16:00,
2013-02-17 02:21:00,28.5,13.1,29.74,North,353,2.0,3.0,52,0.00,,,0.00,Wunderground v.1.15,2013-02-17 07:21:00,
2013-02-17 02:26:00,28.3,12.9,29.74,NW,321,5.0,11.0,52,0.00,,,0.00,Wunderground v.1.15,2013-02-17 07:26:00,
2013-02-17 02:31:00,28.3,12.9,29.73,NNW,345,2.0,4.0,52,0.00,,,0.00,Wunderground v.1.15,2013-02-17 07:31:00,
2013-02-17 02:36:00,28.2,12.8,29.72,NNE,17,9.0,9.0,52,0.00,,,0.00,Wunderground v.1.15,2013-02-17 07:36:00,
2013-02-17 02:41:00,28.1,12.7,29.73,NNW,329,1.0,4.0,52,0.00,,,0.00,Wunderground v.1.15,2013-02-17 07:41:00,
2013-02-17 02:46:00,28.1,12.7,29.73,North,358,4.0,6.0,52,0.00,,,0.00,Wunderground v.1.15,2013-02-17 07:46:00,
2013-02-17 02:51:00,28.0,12.6,29.72,NNW,342,2.0,4.0,52,0.00,,,0.00,Wunderground v.1.15,2013-02-17 07:51:00,
2013-02-17 02:56:00,28.0,12.6,29.72,North,356,2.0,4.0,52,0.00,,,0.00,Wunderground v.1.15,2013-02-17 07:56:00,
2013-02-17 03:01:00,27.9,12.5,29.72,North,359,2.0,3.0,52,0.00,,,0.00,Wunderground v.1.15,2013-02-17 08:01:00,
2013-02-17 03:06:00,27.9,12.5,29.72,NNW,334,1.0,4.0,52,0.00,,,0.00,Wunderground v.1.15,2013-02-17 08:06:00,
2013-02-17 03:11:00,27.9,12.1,29.72,NNW,343,3.0,3.0,51,0.00,,,0.00,Wunderground v.1.15,2013-02-17 08:11:00,
2013-02-17 03:17:00,27.8,11.5,29.72,NW,324,1.0,6.0,50,0.00,,,0.00,Wunderground v.1.15,2013-02-17 08:17:00,
2013-02-17 03:22:00,27.8,11.5,29.71,North,11,2.0,3.0,50,0.00,,,0.00,Wunderground v.1.15,2013-02-17 08:22:00,
2013-02-17 03:27:00,27.8,11.5,29.72,NNW,336,2.0,5.0,50,0.00,,,0.00,Wunderground v.1.15,2013-02-17 08:27:00,
2013-02-17 03:32:00,27.7,11.9,29.72,North,360,2.0,2.0,51,0.00,,,0.00,Wunderground v.1.15,2013-02-17 08:32:00,
2013-02-17 03:37:00,27.6,11.8,29.72,North,350,2.0,6.0,51,0.00,,,0.00,Wunderground v.1.15,2013-02-17 08:37:00,
2013-02-17 03:42:00,27.6,11.8,29.71,North,352,1.0,2.0,51,0.00,,,0.00,Wunderground v.1.15,2013-02-17 08:42:00,
2013-02-17 03:47:00,27.6,11.8,29.72,NNW,332,3.0,4.0,51,0.00,,,0.00,Wunderground v.1.15,2013-02-17 08:47:00,
2013-02-17 03:52:00,27.5,12.2,29.72,North,7,0.0,3.0,52,0.00,,,0.00,Wunderground v.1.15,2013-02-17 08:52:00,
2013-02-17 03:57:00,27.5,12.2,29.71,NNE,22,5.0,6.0,52,0.00,,,0.00,Wunderground v.1.15,2013-02-17 08:57:00,
2013-02-17 04:02:00,27.4,12.5,29.71,NNW,339,4.0,6.0,53,0.00,,,0.00,Wunderground v.1.15,2013-02-17 09:02:00,
2013-02-17 04:07:00,27.4,12.5,29.72,NNE,15,1.0,6.0,53,0.00,,,0.00,Wunderground v.1.15,2013-02-17 09:07:00,
2013-02-17 04:12:00,27.4,12.5,29.72,North,354,1.0,2.0,53,0.00,,,0.00,Wunderground v.1.15,2013-02-17 09:12:00,
2013-02-17 04:17:00,27.4,12.1,29.72,NNW,348,4.0,4.0,52,0.00,,,0.00,Wunderground v.1.15,2013-02-17 09:17:00,
2013-02-17 04:22:00,27.3,12.4,29.71,North,358,1.0,2.0,53,0.00,,,0.00,Wunderground v.1.15,2013-02-17 09:22:00,
2013-02-17 04:27:00,27.2,12.7,29.71,NNE,19,3.0,3.0,54,0.00,,,0.00,Wunderground v.1.15,2013-02-17 09:27:00,
2013-02-17 04:32:00,27.2,12.7,29.71,NNE,19,3.0,3.0,54,0.00,,,0.00,Wunderground v.1.15,2013-02-17 09:32:00,
2013-02-17 04:37:00,27.2,12.7,29.71,NNW,328,2.0,6.0,54,0.00,,,0.00,Wunderground v.1.15,2013-02-17 09:37:00,
2013-02-17 04:42:00,27.2,12.7,29.71,North,7,3.0,3.0,54,0.00,,,0.00,Wunderground v.1.15,2013-02-17 09:42:00,
2013-02-17 04:48:00,27.2,12.7,29.70,North,350,2.0,3.0,54,0.00,,,0.00,Wunderground v.1.15,2013-02-17 09:48:00,
2013-02-17 04:53:00,27.2,12.7,29.70,NNW,334,3.0,5.0,54,0.00,,,0.00,Wunderground v.1.15,2013-02-17 09:53:00,
2013-02-17 04:58:00,27.2,13.1,29.70,NNW,347,2.0,7.0,55,0.00,,,0.00,Wunderground v.1.15,2013-02-17 09:58:00,
2013-02-17 05:03:00,27.2,13.1,29.69,NNW,348,3.0,3.0,55,0.00,,,0.00,Wunderground v.1.15,2013-02-17 10:03:00,
2013-02-17 05:08:00,27.2,13.1,29.70,NNE,27,2.0,3.0,55,0.00,,,0.00,Wunderground v.1.15,2013-02-17 10:08:00,
2013-02-17 05:13:00,27.2,13.6,29.70,NNW,345,2.0,3.0,56,0.00,,,0.00,Wunderground v.1.15,2013-02-17 10:13:00,
2013-02-17 05:18:00,27.1,13.1,29.69,NNW,342,2.0,5.0,55,0.00,,,0.00,Wunderground v.1.15,2013-02-17 10:18:00,
2013-02-17 05:23:00,27.1,13.1,29.70,North,355,1.0,2.0,55,0.00,,,0.00,Wunderground v.1.15,2013-02-17 10:23:00,
2013-02-17 05:28:00,27.1,13.1,29.70,NNW,344,2.0,5.0,55,0.00,,,0.00,Wunderground v.1.15,2013-02-17 10:28:00,
2013-02-17 05:33:00,27.0,13.0,29.70,North,351,2.0,4.0,55,0.00,,,0.00,Wunderground v.1.15,2013-02-17 10:33:00,
2013-02-17 05:38:00,27.0,12.5,29.70,North,353,2.0,4.0,54,0.00,,,0.00,Wunderground v.1.15,2013-02-17 10:38:00,
2013-02-17 05:43:00,27.0,12.5,29.70,NNW,342,0.0,2.0,54,0.00,,,0.00,Wunderground v.1.15,2013-02-17 10:43:00,
2013-02-17 05:48:00,27.0,13.0,29.70,NNE,13,2.0,3.0,55,0.00,,,0.00,Wunderground v.1.15,2013-02-17 10:48:00,
2013-02-17 05:53:00,27.0,13.0,29.69,North,9,2.0,2.0,55,0.00,,,0.00,Wunderground v.1.15,2013-02-17 10:53:00,
2013-02-17 05:58:00,26.9,12.5,29.69,NNW,331,0.0,5.0,54,0.00,,,0.00,Wunderground v.1.15,2013-02-17 10:58:00,
2013-02-17 06:06:00,26.9,12.5,29.69,North,1,4.0,5.0,54,0.00,,,0.00,Wunderground v.1.15,2013-02-17 11:06:00,
2013-02-17 06:11:00,26.9,12.0,29.69,North,4,2.0,3.0,53,0.00,,,0.00,Wunderground v.1.15,2013-02-17 11:11:00,
2013-02-17 06:16:00,26.9,11.6,29.69,NNW,340,1.0,3.0,52,0.00,,,0.00,Wunderground v.1.15,2013-02-17 11:16:00,
2013-02-17 06:22:00,26.9,11.6,29.69,NNE,24,2.0,3.0,52,0.00,,,0.00,Wunderground v.1.15,2013-02-17 11:22:00,
2013-02-17 06:26:00,26.9,11.6,29.69,North,350,4.0,4.0,52,0.00,,,0.00,Wunderground v.1.15,2013-02-17 11:26:00,
2013-02-17 06:32:00,26.9,11.2,29.69,NNE,13,2.0,6.0,51,0.00,,,0.00,Wunderground v.1.15,2013-02-17 11:32:00,
2013-02-17 06:37:00,26.9,11.2,29.69,North,355,1.0,6.0,51,0.00,,,0.00,Wunderground v.1.15,2013-02-17 11:37:00,
2013-02-17 06:42:00,26.9,10.7,29.69,NNW,328,3.0,4.0,50,0.00,,,0.00,Wunderground v.1.15,2013-02-17 11:42:00,
2013-02-17 06:47:00,26.8,10.6,29.69,NW,316,1.0,4.0,50,0.00,,,0.00,Wunderground v.1.15,2013-02-17 11:47:00,
2013-02-17 06:52:00,26.8,10.6,29.68,NNW,342,1.0,5.0,50,0.00,,,0.00,Wunderground v.1.15,2013-02-17 11:52:00,
2013-02-17 06:57:00,26.7,10.5,29.68,NNE,32,3.0,5.0,50,0.00,,,0.00,Wunderground v.1.15,2013-02-17 11:57:00,
2013-02-17 07:02:00,26.7,10.5,29.68,NW,312,3.0,3.0,50,0.00,,,0.00,Wunderground v.1.15,2013-02-17 12:02:00,
2013-02-17 07:07:00,26.7,10.5,29.68,NNW,340,3.0,8.0,50,0.00,,,0.00,Wunderground v.1.15,2013-02-17 12:07:00,
2013-02-17 07:12:00,26.7,11.0,29.68,NNW,334,0.0,2.0,51,0.00,,,0.00,Wunderground v.1.15,2013-02-17 12:12:00,
2013-02-17 07:17:00,26.7,10.1,29.68,NNE,18,2.0,3.0,49,0.00,,,0.00,Wunderground v.1.15,2013-02-17 12:17:00,
2013-02-17 07:22:00,26.7,9.1,29.69,North,352,8.0,8.0,47,0.00,,,0.00,Wunderground v.1.15,2013-02-17 12:22:00,
2013-02-17 07:27:00,26.7,7.7,29.69,NNW,337,1.0,8.0,44,0.00,,,0.00,Wunderground v.1.15,2013-02-17 12:27:00,
2013-02-17 07:32:00,26.7,6.6,29.69,NW,319,2.0,5.0,42,0.00,,,0.00,Wunderground v.1.15,2013-02-17 12:32:00,
2013-02-17 07:37:00,26.7,7.2,29.69,NW,325,3.0,8.0,43,0.00,,,0.00,Wunderground v.1.15,2013-02-17 12:37:00,
2013-02-17 07:42:00,26.7,6.1,29.69,NNW,338,3.0,10.0,41,0.00,,,0.00,Wunderground v.1.15,2013-02-17 12:42:00,
2013-02-17 07:47:00,26.6,6.6,29.69,NW,317,3.0,10.0,42,0.00,,,0.00,Wunderground v.1.15,2013-02-17 12:47:00,
2013-02-17 07:52:00,26.6,5.5,29.70,NW,311,1.0,5.0,40,0.00,,,0.00,Wunderground v.1.15,2013-02-17 12:52:00,
2013-02-17 07:58:00,26.5,5.9,29.70,East,84,1.0,5.0,41,0.00,,,0.00,Wunderground v.1.15,2013-02-17 12:58:00,
2013-02-17 08:03:00,26.5,5.4,29.70,NNW,342,3.0,3.0,40,0.00,,,0.00,Wunderground v.1.15,2013-02-17 13:03:00,
2013-02-17 08:08:00,26.5,5.4,29.70,NW,318,2.0,8.0,40,0.00,,,0.00,Wunderground v.1.15,2013-02-17 13:08:00,
2013-02-17 08:13:00,26.4,4.8,29.70,NW,305,1.0,9.0,39,0.00,,,0.00,Wunderground v.1.15,2013-02-17 13:13:00,
2013-02-17 08:18:00,26.4,5.3,29.70,North,6,9.0,9.0,40,0.00,,,0.00,Wunderground v.1.15,2013-02-17 13:18:00,
2013-02-17 08:23:00,26.4,5.3,29.70,West,276,2.0,3.0,40,0.00,,,0.00,Wunderground v.1.15,2013-02-17 13:23:00,
2013-02-17 08:28:00,26.4,5.3,29.69,NNW,337,3.0,5.0,40,0.00,,,0.00,Wunderground v.1.15,2013-02-17 13:28:00,
2013-02-17 08:33:00,26.4,5.3,29.70,North,353,3.0,6.0,40,0.00,,,0.00,Wunderground v.1.15,2013-02-17 13:33:00,
2013-02-17 08:38:00,26.3,4.7,29.69,NNW,329,2.0,6.0,39,0.00,,,0.00,Wunderground v.1.15,2013-02-17 13:38:00,
2013-02-17 08:43:00,26.3,4.7,29.69,NNW,343,4.0,5.0,39,0.00,,,0.00,Wunderground v.1.15,2013-02-17 13:43:00,
2013-02-17 08:48:00,26.3,4.7,29.68,NNW,346,4.0,10.0,39,0.00,,,0.00,Wunderground v.1.15,2013-02-17 13:48:00,
2013-02-17 08:53:00,26.3,5.2,29.68,NNE,13,2.0,6.0,40,0.00,,,0.00,Wunderground v.1.15,2013-02-17 13:53:00,
2013-02-17 08:58:00,26.2,4.6,29.68,NNW,342,1.0,6.0,39,0.00,,,0.00,Wunderground v.1.15,2013-02-17 13:58:00,
2013-02-17 09:06:00,26.2,4.0,29.69,WNW,298,1.0,5.0,38,0.00,,,0.00,Wunderground v.1.15,2013-02-17 14:06:00,
2013-02-17 09:11:00,26.3,4.7,29.69,North,9,3.0,3.0,39,0.00,,,0.00,Wunderground v.1.15,2013-02-17 14:11:00,
2013-02-17 09:16:00,26.4,5.3,29.69,West,275,3.0,5.0,40,0.00,,,0.00,Wunderground v.1.15,2013-02-17 14:16:00,
2013-02-17 09:21:00,26.7,5.0,29.70,WNW,301,3.0,3.0,39,0.00,,,0.00,Wunderground v.1.15,2013-02-17 14:21:00,
2013-02-17 09:26:00,27.0,5.3,29.69,NNW,345,4.0,10.0,39,0.00,,,0.00,Wunderground v.1.15,2013-02-17 14:26:00,
2013-02-17 09:31:00,27.2,4.9,29.69,NNW,346,5.0,7.0,38,0.00,,,0.00,Wunderground v.1.15,2013-02-17 14:31:00,
2013-02-17 09:36:00,27.2,4.9,29.70,North,356,5.0,9.0,38,0.00,,,0.00,Wunderground v.1.15,2013-02-17 14:36:00,
2013-02-17 09:41:00,27.4,5.7,29.69,NNW,342,7.0,8.0,39,0.00,,,0.00,Wunderground v.1.15,2013-02-17 14:41:00,
2013-02-17 09:46:00,27.7,4.8,29.69,SW,217,3.0,8.0,37,0.00,,,0.00,Wunderground v.1.15,2013-02-17 14:46:00,
2013-02-17 09:51:00,27.8,4.9,29.70,North,9,3.0,5.0,37,0.00,,,0.00,Wunderground v.1.15,2013-02-17 14:51:00,
2013-02-17 09:56:00,27.7,4.8,29.70,North,350,7.0,10.0,37,0.00,,,0.00,Wunderground v.1.15,2013-02-17 14:56:00,
2013-02-17 10:01:00,27.6,5.3,29.70,NNE,27,3.0,3.0,38,0.00,,,0.00,Wunderground v.1.15,2013-02-17 15:01:00,
2013-02-17 10:06:00,27.5,5.2,29.70,NNW,346,7.0,10.0,38,0.00,,,0.00,Wunderground v.1.15,2013-02-17 15:06:00,
2013-02-17 10:12:00,27.5,5.2,29.70,NNW,344,3.0,9.0,38,0.00,,,0.00,Wunderground v.1.15,2013-02-17 15:12:00,
2013-02-17 10:17:00,27.7,4.8,29.70,NW,313,2.0,9.0,37,0.00,,,0.00,Wunderground v.1.15,2013-02-17 15:17:00,
2013-02-17 10:22:00,28.0,5.0,29.69,NNW,344,12.0,12.0,37,0.00,,,0.00,Wunderground v.1.15,2013-02-17 15:22:00,
2013-02-17 10:27:00,28.1,5.1,29.69,NNW,348,2.0,13.0,37,0.00,,,0.00,Wunderground v.1.15,2013-02-17 15:27:00,
2013-02-17 10:32:00,28.4,5.4,29.69,NNW,347,4.0,5.0,37,0.00,,,0.00,Wunderground v.1.15,2013-02-17 15:32:00,
2013-02-17 10:37:00,28.9,5.2,29.69,North,360,7.0,8.0,36,0.00,,,0.00,Wunderground v.1.15,2013-02-17 15:37:00,
2013-02-17 10:42:00,29.0,4.7,29.70,North,350,4.0,5.0,35,0.00,,,0.00,Wunderground v.1.15,2013-02-17 15:42:00,
2013-02-17 10:47:00,28.9,4.6,29.70,NW,318,2.0,9.0,35,0.00,,,0.00,Wunderground v.1.15,2013-02-17 15:47:00,
2013-02-17 10:52:00,29.2,5.5,29.70,NW,322,13.0,13.0,36,0.00,,,0.00,Wunderground v.1.15,2013-02-17 15:52:00,
2013-02-17 10:57:00,29.0,4.7,29.70,West,267,3.0,15.0,35,0.00,,,0.00,Wunderground v.1.15,2013-02-17 15:57:00,
2013-02-17 11:02:00,29.0,4.1,29.70,NW,317,4.0,8.0,34,0.00,,,0.00,Wunderground v.1.15,2013-02-17 16:02:00,
2013-02-17 11:07:00,28.8,3.9,29.71,WNW,299,5.0,8.0,34,0.00,,,0.00,Wunderground v.1.15,2013-02-17 16:07:00,
2013-02-17 11:12:00,28.8,4.5,29.71,NNW,327,3.0,8.0,35,0.00,,,0.00,Wunderground v.1.15,2013-02-17 16:12:00,
2013-02-17 11:17:00,29.0,4.7,29.71,NW,320,0.0,8.0,35,0.00,,,0.00,Wunderground v.1.15,2013-02-17 16:17:00,
2013-02-17 11:22:00,29.1,4.8,29.71,NNW,332,5.0,8.0,35,0.00,,,0.00,Wunderground v.1.15,2013-02-17 16:22:00,
2013-02-17 11:27:00,28.9,4.0,29.71,NW,317,3.0,10.0,34,0.00,,,0.00,Wunderground v.1.15,2013-02-17 16:27:00,
2013-02-17 11:32:00,28.8,3.9,29.71,NNW,335,6.0,6.0,34,0.00,,,0.00,Wunderground v.1.15,2013-02-17 16:32:00,
2013-02-17 11:37:00,28.8,3.9,29.71,WNW,284,5.0,8.0,34,0.00,,,0.00,Wunderground v.1.15,2013-02-17 16:37:00,
2013-02-17 11:42:00,28.8,3.9,29.71,West,265,5.0,11.0,34,0.00,,,0.00,Wunderground v.1.15,2013-02-17 16:42:00,
2013-02-17 11:47:00,28.9,3.4,29.71,North,9,5.0,11.0,33,0.00,,,0.00,Wunderground v.1.15,2013-02-17 16:47:00,
2013-02-17 11:52:00,29.1,4.2,29.72,NNW,334,1.0,5.0,34,0.00,,,0.00,Wunderground v.1.15,2013-02-17 16:52:00,
2013-02-17 11:57:00,29.6,5.3,29.71,NNW,348,1.0,8.0,35,0.00,,,0.00,Wunderground v.1.15,2013-02-17 16:57:00,
2013-02-17 12:02:00,30.0,5.0,29.71,WNW,294,4.0,7.0,34,0.00,,,0.00,Wunderground v.1.15,2013-02-17 17:02:00,
2013-02-17 12:07:00,30.1,5.1,29.71,WNW,284,4.0,11.0,34,0.00,,,0.00,Wunderground v.1.15,2013-02-17 17:07:00,
2013-02-17 12:12:00,30.3,5.2,29.71,NNW,338,5.0,11.0,34,0.00,,,0.00,Wunderground v.1.15,2013-02-17 17:12:00,
2013-02-17 12:17:00,30.5,5.4,29.71,West,260,5.0,12.0,34,0.00,,,0.00,Wunderground v.1.15,2013-02-17 17:17:00,
2013-02-17 12:22:00,30.6,4.9,29.72,NW,319,4.0,14.0,33,0.00,,,0.00,Wunderground v.1.15,2013-02-17 17:22:00,
2013-02-17 12:27:00,30.2,4.5,29.71,West,264,5.0,14.0,33,0.00,,,0.00,Wunderground v.1.15,2013-02-17 17:27:00,
2013-02-17 12:33:00,30.2,4.5,29.72,WSW,257,4.0,5.0,33,0.00,,,0.00,Wunderground v.1.15,2013-02-17 17:33:00,
2013-02-17 12:38:00,30.6,5.5,29.72,North,354,3.0,9.0,34,0.00,,,0.00,Wunderground v.1.15,2013-02-17 17:38:00,
2013-02-17 12:43:00,30.8,5.0,29.72,WNW,302,4.0,7.0,33,0.00,,,0.00,Wunderground v.1.15,2013-02-17 17:43:00,
2013-02-17 12:48:00,30.8,5.7,29.72,North,8,5.0,10.0,34,0.00,,,0.00,Wunderground v.1.15,2013-02-17 17:48:00,
2013-02-17 12:53:00,30.6,5.5,29.72,NNW,342,7.0,10.0,34,0.00,,,0.00,Wunderground v.1.15,2013-02-17 17:53:00,
2013-02-17 12:58:00,30.6,6.1,29.72,WNW,284,3.0,10.0,35,0.00,,,0.00,Wunderground v.1.15,2013-02-17 17:58:00,
2013-02-17 13:03:00,31.1,6.0,29.72,NW,324,6.0,10.0,34,0.00,,,0.00,Wunderground v.1.15,2013-02-17 18:03:00,
2013-02-17 13:08:00,30.8,5.0,29.73,West,277,8.0,10.0,33,0.00,,,0.00,Wunderground v.1.15,2013-02-17 18:08:00,
2013-02-17 13:13:00,30.6,6.1,29.72,NNW,342,2.0,5.0,35,0.00,,,0.00,Wunderground v.1.15,2013-02-17 18:13:00,
2013-02-17 13:18:00,30.8,5.0,29.73,WNW,294,5.0,12.0,33,0.00,,,0.00,Wunderground v.1.15,2013-02-17 18:18:00,
2013-02-17 13:23:00,30.7,5.6,29.73,NNE,27,3.0,4.0,34,0.00,,,0.00,Wunderground v.1.15,2013-02-17 18:23:00,
2013-02-17 13:28:00,31.0,5.9,29.73,NNE,13,7.0,11.0,34,0.00,,,0.00,Wunderground v.1.15,2013-02-17 18:28:00,
2013-02-17 13:33:00,31.1,6.0,29.73,WNW,289,2.0,6.0,34,0.00,,,0.00,Wunderground v.1.15,2013-02-17 18:33:00,
2013-02-17 13:38:00,31.0,5.2,29.73,North,358,3.0,9.0,33,0.00,,,0.00,Wunderground v.1.15,2013-02-17 18:38:00,
2013-02-17 13:46:00,30.9,5.1,29.74,NNW,342,5.0,9.0,33,0.00,,,0.00,Wunderground v.1.15,2013-02-17 18:46:00,
2013-02-17 13:51:00,30.7,4.9,29.74,North,354,1.0,4.0,33,0.00,,,0.00,Wunderground v.1.15,2013-02-17 18:51:00,
2013-02-17 13:57:00,30.5,4.8,29.73,NNW,329,3.0,5.0,33,0.00,,,0.00,Wunderground v.1.15,2013-02-17 18:57:00,
2013-02-17 14:02:00,30.2,5.2,29.74,WNW,302,5.0,11.0,34,0.00,,,0.00,Wunderground v.1.15,2013-02-17 19:02:00,
2013-02-17 14:07:00,30.2,5.2,29.74,NNW,330,3.0,11.0,34,0.00,,,0.00,Wunderground v.1.15,2013-02-17 19:07:00,
2013-02-17 14:12:00,30.2,5.2,29.74,West,259,5.0,9.0,34,0.00,,,0.00,Wunderground v.1.15,2013-02-17 19:12:00,
2013-02-17 14:17:00,30.5,4.8,29.73,NW,319,1.0,9.0,33,0.00,,,0.00,Wunderground v.1.15,2013-02-17 19:17:00,
2013-02-17 14:22:00,30.6,3.5,29.74,NW,319,5.0,11.0,31,0.00,,,0.00,Wunderground v.1.15,2013-02-17 19:22:00,
2013-02-17 14:27:00,30.5,4.1,29.74,WNW,294,3.0,12.0,32,0.00,,,0.00,Wunderground v.1.15,2013-02-17 19:27:00,
2013-02-17 14:32:00,30.4,4.0,29.74,WSW,249,3.0,4.0,32,0.00,,,0.00,Wunderground v.1.15,2013-02-17 19:32:00,
2013-02-17 14:37:00,30.5,4.8,29.74,NNW,334,2.0,10.0,33,0.00,,,0.00,Wunderground v.1.15,2013-02-17 19:37:00,
2013-02-17 14:42:00,30.7,3.6,29.74,SW,224,7.0,7.0,31,0.00,,,0.00,Wunderground v.1.15,2013-02-17 19:42:00,
2013-02-17 14:47:00,30.3,3.2,29.74,North,9,6.0,12.0,31,0.00,,,0.00,Wunderground v.1.15,2013-02-17 19:47:00,
2013-02-17 14:52:00,30.1,3.1,29.75,NW,308,3.0,8.0,31,0.00,,,0.00,Wunderground v.1.15,2013-02-17 19:52:00,
2013-02-17 14:57:00,29.6,3.3,29.75,NNW,343,2.0,13.0,32,0.00,,,0.00,Wunderground v.1.15,2013-02-17 19:57:00,
2013-02-17 15:02:00,29.3,3.7,29.75,NW,314,5.0,5.0,33,0.00,,,0.00,Wunderground v.1.15,2013-02-17 20:02:00,
2013-02-17 15:07:00,29.3,4.4,29.75,West,265,6.0,11.0,34,0.00,,,0.00,Wunderground v.1.15,2013-02-17 20:07:00,
2013-02-17 15:12:00,29.4,2.4,29.75,WNW,284,4.0,9.0,31,0.00,,,0.00,Wunderground v.1.15,2013-02-17 20:12:00,
2013-02-17 15:17:00,29.4,3.1,29.76,NNW,341,7.0,9.0,32,0.00,,,0.00,Wunderground v.1.15,2013-02-17 20:17:00,
2013-02-17 15:22:00,29.5,3.9,29.75,WSW,238,2.0,4.0,33,0.00,,,0.00,Wunderground v.1.15,2013-02-17 20:22:00,
2013-02-17 15:27:00,29.6,3.3,29.76,WSW,258,7.0,9.0,32,0.00,,,0.00,Wunderground v.1.15,2013-02-17 20:27:00,
2013-02-17 15:32:00,29.4,3.1,29.76,North,349,2.0,5.0,32,0.00,,,0.00,Wunderground v.1.15,2013-02-17 20:32:00,
2013-02-17 15:37:00,29.4,3.1,29.77,West,275,13.0,13.0,32,0.00,,,0.00,Wunderground v.1.15,2013-02-17 20:37:00,
2013-02-17 15:42:00,28.8,3.3,29.77,WNW,289,3.0,8.0,33,0.00,,,0.00,Wunderground v.1.15,2013-02-17 20:42:00,
2013-02-17 15:47:00,28.5,2.3,29.77,NW,325,5.0,9.0,32,0.00,,,0.00,Wunderground v.1.15,2013-02-17 20:47:00,
2013-02-17 15:52:00,28.4,2.9,29.77,West,272,12.0,12.0,33,0.00,,,0.00,Wunderground v.1.15,2013-02-17 20:52:00,
2013-02-17 15:57:00,28.2,2.7,29.78,WNW,302,4.0,12.0,33,0.00,,,0.00,Wunderground v.1.15,2013-02-17 20:57:00,
2013-02-17 16:02:00,27.9,3.7,29.78,North,357,10.0,10.0,35,0.00,,,0.00,Wunderground v.1.15,2013-02-17 21:02:00,
2013-02-17 16:07:00,27.6,3.5,29.78,WSW,244,5.0,10.0,35,0.00,,,0.00,Wunderground v.1.15,2013-02-17 21:07:00,
2013-02-17 16:12:00,27.4,2.7,29.79,West,260,4.0,9.0,34,0.00,,,0.00,Wunderground v.1.15,2013-02-17 21:12:00,
2013-02-17 16:17:00,27.1,3.0,29.78,West,279,5.0,12.0,35,0.00,,,0.00,Wunderground v.1.15,2013-02-17 21:17:00,
2013-02-17 16:22:00,27.0,3.5,29.79,SSW,208,3.0,6.0,36,0.00,,,0.00,Wunderground v.1.15,2013-02-17 21:22:00,
2013-02-17 16:27:00,27.0,4.1,29.79,NNW,347,7.0,10.0,37,0.00,,,0.00,Wunderground v.1.15,2013-02-17 21:27:00,
2013-02-17 16:32:00,27.1,4.2,29.79,NNW,338,1.0,8.0,37,0.00,,,0.00,Wunderground v.1.15,2013-02-17 21:32:00,
2013-02-17 16:37:00,27.2,4.3,29.79,West,280,5.0,10.0,37,0.00,,,0.00,Wunderground v.1.15,2013-02-17 21:37:00,
2013-02-17 16:43:00,27.1,3.6,29.80,NNE,22,2.0,9.0,36,0.00,,,0.00,Wunderground v.1.15,2013-02-17 21:43:00,
2013-02-17 16:48:00,26.7,3.9,29.80,WSW,248,2.0,13.0,37,0.00,,,0.00,Wunderground v.1.15,2013-02-17 21:48:00,
2013-02-17 16:53:00,26.5,4.3,29.80,NW,322,4.0,4.0,38,0.00,,,0.00,Wunderground v.1.15,2013-02-17 21:53:00,
2013-02-17 16:58:00,26.2,4.6,29.81,NW,313,2.0,12.0,39,0.00,,,0.00,Wunderground v.1.15,2013-02-17 21:58:00,
2013-02-17 17:03:00,25.9,5.4,29.81,North,354,4.0,6.0,41,0.00,,,0.00,Wunderground v.1.15,2013-02-17 22:03:00,
2013-02-17 17:08:00,25.6,5.1,29.81,West,271,6.0,13.0,41,0.00,,,0.00,Wunderground v.1.15,2013-02-17 22:08:00,
2013-02-17 17:13:00,25.5,5.0,29.81,NW,318,2.0,5.0,41,0.00,,,0.00,Wunderground v.1.15,2013-02-17 22:13:00,
2013-02-17 17:18:00,25.4,4.9,29.81,NW,325,2.0,8.0,41,0.00,,,0.00,Wunderground v.1.15,2013-02-17 22:18:00,
2013-02-17 17:23:00,25.4,4.4,29.82,NNW,347,1.0,7.0,40,0.00,,,0.00,Wunderground v.1.15,2013-02-17 22:23:00,
2013-02-17 17:28:00,25.2,4.2,29.82,NNW,334,2.0,9.0,40,0.00,,,0.00,Wunderground v.1.15,2013-02-17 22:28:00,
2013-02-17 17:33:00,25.1,4.1,29.83,NNW,335,0.0,9.0,40,0.00,,,0.00,Wunderground v.1.15,2013-02-17 22:33:00,
2013-02-17 17:38:00,25.0,4.6,29.83,NW,315,2.0,9.0,41,0.00,,,0.00,Wunderground v.1.15,2013-02-17 22:38:00,
2013-02-17 17:43:00,24.9,4.5,29.83,West,262,1.0,5.0,41,0.00,,,0.00,Wunderground v.1.15,2013-02-17 22:43:00,
2013-02-17 17:48:00,24.9,4.5,29.83,NW,305,5.0,10.0,41,0.00,,,0.00,Wunderground v.1.15,2013-02-17 22:48:00,
2013-02-17 17:53:00,24.8,4.4,29.84,WNW,294,1.0,4.0,41,0.00,,,0.00,Wunderground v.1.15,2013-02-17 22:53:00,
2013-02-17 17:58:00,24.7,2.7,29.85,NW,324,3.0,7.0,38,0.00,,,0.00,Wunderground v.1.15,2013-02-17 22:58:00,
2013-02-17 18:06:00,24.4,2.4,29.85,SW,214,3.0,7.0,38,0.00,,,0.00,Wunderground v.1.15,2013-02-17 23:06:00,
2013-02-17 18:11:00,24.2,2.8,29.86,NNW,327,3.0,3.0,39,0.00,,,0.00,Wunderground v.1.15,2013-02-17 23:11:00,
2013-02-17 18:16:00,24.1,2.1,29.86,NNW,345,5.0,9.0,38,0.00,,,0.00,Wunderground v.1.15,2013-02-17 23:16:00,
2013-02-17 18:21:00,24.0,2.0,29.87,NW,319,5.0,11.0,38,0.00,,,0.00,Wunderground v.1.15,2013-02-17 23:21:00,
2013-02-17 18:26:00,23.8,2.4,29.87,North,1,5.0,11.0,39,0.00,,,0.00,Wunderground v.1.15,2013-02-17 23:26:00,
2013-02-17 18:32:00,23.6,2.8,29.89,NW,323,5.0,5.0,40,0.00,,,0.00,Wunderground v.1.15,2013-02-17 23:32:00,
2013-02-17 18:37:00,23.4,2.6,29.88,West,268,3.0,11.0,40,0.00,,,0.00,Wunderground v.1.15,2013-02-17 23:37:00,
2013-02-17 18:42:00,23.1,2.9,29.89,NNW,327,5.0,5.0,41,0.00,,,0.00,Wunderground v.1.15,2013-02-17 23:42:00,
2013-02-17 18:47:00,22.9,2.7,29.89,WNW,302,6.0,16.0,41,0.00,,,0.00,Wunderground v.1.15,2013-02-17 23:47:00,
2013-02-17 18:52:00,22.7,3.0,29.89,West,269,3.0,4.0,42,0.00,,,0.00,Wunderground v.1.15,2013-02-17 23:52:00,
2013-02-17 18:57:00,22.6,3.4,29.90,NNW,337,3.0,10.0,43,0.00,,,0.00,Wunderground v.1.15,2013-02-17 23:57:00,
2013-02-17 19:02:00,22.5,3.3,29.90,North,355,2.0,4.0,43,0.00,,,0.00,Wunderground v.1.15,2013-02-18 00:02:00,
2013-02-17 19:07:00,22.4,3.7,29.90,West,279,3.0,11.0,44,0.00,,,0.00,Wunderground v.1.15,2013-02-18 00:07:00,
2013-02-17 19:12:00,22.3,4.1,29.91,West,271,3.0,7.0,45,0.00,,,0.00,Wunderground v.1.15,2013-02-18 00:12:00,
2013-02-17 19:17:00,22.2,4.5,29.91,WNW,284,5.0,7.0,46,0.00,,,0.00,Wunderground v.1.15,2013-02-18 00:17:00,
2013-02-17 19:22:00,22.0,4.3,29.91,WNW,294,2.0,9.0,46,0.00,,,0.00,Wunderground v.1.15,2013-02-18 00:22:00,
2013-02-17 19:27:00,21.9,4.3,29.92,NW,304,3.0,9.0,46,0.00,,,0.00,Wunderground v.1.15,2013-02-18 00:27:00,
2013-02-17 19:32:00,21.7,4.1,29.92,WNW,298,2.0,4.0,46,0.00,,,0.00,Wunderground v.1.15,2013-02-18 00:32:00,
2013-02-17 19:37:00,21.7,4.5,29.92,SW,234,3.0,7.0,47,0.00,,,0.00,Wunderground v.1.15,2013-02-18 00:37:00,
2013-02-17 19:42:00,21.5,3.9,29.92,WNW,294,3.0,7.0,46,0.00,,,0.00,Wunderground v.1.15,2013-02-18 00:42:00,
2013-02-17 19:47:00,21.4,3.8,29.92,NNW,342,3.0,7.0,46,0.00,,,0.00,Wunderground v.1.15,2013-02-18 00:47:00,
2013-02-17 19:52:00,21.3,3.7,29.92,West,267,0.0,3.0,46,0.00,,,0.00,Wunderground v.1.15,2013-02-18 00:52:00,
2013-02-17 19:57:00,21.2,3.1,29.93,WNW,298,1.0,8.0,45,0.00,,,0.00,Wunderground v.1.15,2013-02-18 00:57:00,
2013-02-17 20:02:00,21.1,3.0,29.93,North,7,3.0,3.0,45,0.00,,,0.00,Wunderground v.1.15,2013-02-18 01:02:00,
2013-02-17 20:07:00,20.9,2.4,29.93,West,278,5.0,11.0,44,0.00,,,0.00,Wunderground v.1.15,2013-02-18 01:07:00,
2013-02-17 20:12:00,20.7,2.7,29.93,NW,321,4.0,7.0,45,0.00,,,0.00,Wunderground v.1.15,2013-02-18 01:12:00,
2013-02-17 20:17:00,20.5,3.0,29.94,NNW,328,1.0,13.0,46,0.00,,,0.00,Wunderground v.1.15,2013-02-18 01:17:00,
2013-02-17 20:22:00,20.3,2.8,29.94,NW,323,5.0,8.0,46,0.00,,,0.00,Wunderground v.1.15,2013-02-18 01:22:00,
2013-02-17 20:27:00,20.2,2.7,29.95,WNW,300,1.0,8.0,46,0.00,,,0.00,Wunderground v.1.15,2013-02-18 01:27:00,
2013-02-17 20:32:00,20.1,3.1,29.95,SW,223,8.0,8.0,47,0.00,,,0.00,Wunderground v.1.15,2013-02-18 01:32:00,
2013-02-17 20:37:00,19.8,2.3,29.96,NNW,327,3.0,8.0,46,0.00,,,0.00,Wunderground v.1.15,2013-02-18 01:37:00,
2013-02-17 20:43:00,19.6,2.1,29.96,West,280,4.0,8.0,46,0.00,,,0.00,Wunderground v.1.15,2013-02-18 01:43:00,
2013-02-17 20:48:00,19.2,2.2,29.97,NNW,331,5.0,11.0,47,0.00,,,0.00,Wunderground v.1.15,2013-02-18 01:48:00,
2013-02-17 20:53:00,19.0,1.6,29.97,NNE,24,3.0,11.0,46,0.00,,,0.00,Wunderground v.1.15,2013-02-18 01:53:00,
2013-02-17 21:01:00,18.7,1.3,29.97,NW,316,3.0,5.0,46,0.00,,,0.00,Wunderground v.1.15,2013-02-18 02:01:00,
2013-02-17 21:06:00,18.6,1.2,29.97,WNW,303,0.0,13.0,46,0.00,,,0.00,Wunderground v.1.15,2013-02-18 02:06:00,
2013-02-17 21:11:00,18.5,1.6,29.98,West,279,3.0,4.0,47,0.00,,,0.00,Wunderground v.1.15,2013-02-18 02:11:00,
2013-02-17 21:16:00,18.3,1.4,29.98,NW,316,2.0,10.0,47,0.00,,,0.00,Wunderground v.1.15,2013-02-18 02:16:00,
2013-02-17 21:21:00,18.2,1.3,29.98,NW,304,2.0,4.0,47,0.00,,,0.00,Wunderground v.1.15,2013-02-18 02:21:00,
2013-02-17 21:26:00,18.0,1.6,29.99,WNW,298,4.0,7.0,48,0.00,,,0.00,Wunderground v.1.15,2013-02-18 02:26:00,
2013-02-17 21:31:00,17.8,0.9,29.99,WNW,284,3.0,3.0,47,0.00,,,0.00,Wunderground v.1.15,2013-02-18 02:31:00,
2013-02-17 21:36:00,17.6,1.2,29.99,WSW,240,3.0,10.0,48,0.00,,,0.00,Wunderground v.1.15,2013-02-18 02:36:00,
2013-02-17 21:42:00,17.5,1.1,29.99,West,278,4.0,6.0,48,0.00,,,0.00,Wunderground v.1.15,2013-02-18 02:42:00,
2013-02-17 21:47:00,17.3,0.9,29.99,West,267,3.0,6.0,48,0.00,,,0.00,Wunderground v.1.15,2013-02-18 02:47:00,
2013-02-17 21:52:00,17.3,0.9,29.99,North,4,3.0,4.0,48,0.00,,,0.00,Wunderground v.1.15,2013-02-18 02:52:00,
2013-02-17 21:57:00,17.2,1.3,29.99,NNW,348,4.0,4.0,49,0.00,,,0.00,Wunderground v.1.15,2013-02-18 02:57:00,
2013-02-17 22:02:00,17.1,1.2,30.00,West,277,5.0,5.0,49,0.00,,,0.00,Wunderground v.1.15,2013-02-18 03:02:00,
2013-02-17 22:07:00,17.1,0.7,29.99,NW,325,1.0,7.0,48,0.00,,,0.00,Wunderground v.1.15,2013-02-18 03:07:00,
2013-02-17 22:12:00,17.1,1.6,30.00,NW,319,2.0,4.0,50,0.00,,,0.00,Wunderground v.1.15,2013-02-18 03:12:00,
2013-02-17 22:17:00,17.0,1.1,30.00,NNE,18,3.0,5.0,49,0.00,,,0.00,Wunderground v.1.15,2013-02-18 03:17:00,
2013-02-17 22:22:00,17.0,1.1,30.00,West,280,2.0,4.0,49,0.00,,,0.00,Wunderground v.1.15,2013-02-18 03:22:00,
2013-02-17 22:27:00,17.0,1.5,30.00,West,277,1.0,5.0,50,0.00,,,0.00,Wunderground v.1.15,2013-02-18 03:27:00,
2013-02-17 22:32:00,17.0,1.5,30.00,West,263,3.0,4.0,50,0.00,,,0.00,Wunderground v.1.15,2013-02-18 03:32:00,
2013-02-17 22:37:00,17.0,1.5,30.00,NW,323,1.0,9.0,50,0.00,,,0.00,Wunderground v.1.15,2013-02-18 03:37:00,
2013-02-17 22:42:00,17.0,1.5,30.00,NW,321,1.0,2.0,50,0.00,,,0.00,Wunderground v.1.15,2013-02-18 03:42:00,
2013-02-17 22:47:00,17.0,1.5,30.00,WNW,294,3.0,7.0,50,0.00,,,0.00,Wunderground v.1.15,2013-02-18 03:47:00,
2013-02-17 22:52:00,17.0,1.5,30.00,NNW,336,4.0,5.0,50,0.00,,,0.00,Wunderground v.1.15,2013-02-18 03:52:00,
2013-02-17 22:57:00,17.1,2.1,30.01,WSW,252,4.0,7.0,51,0.00,,,0.00,Wunderground v.1.15,2013-02-18 03:57:00,
2013-02-17 23:02:00,17.1,1.6,30.01,WNW,299,2.0,3.0,50,0.00,,,0.00,Wunderground v.1.15,2013-02-18 04:02:00,
2013-02-17 23:07:00,17.1,2.1,30.01,SW,229,2.0,6.0,51,0.00,,,0.00,Wunderground v.1.15,2013-02-18 04:07:00,
2013-02-17 23:12:00,17.2,2.1,30.01,WNW,289,1.0,3.0,51,0.00,,,0.00,Wunderground v.1.15,2013-02-18 04:12:00,
2013-02-17 23:17:00,17.2,2.1,30.02,West,266,2.0,5.0,51,0.00,,,0.00,Wunderground v.1.15,2013-02-18 04:17:00,
2013-02-17 23:22:00,17.2,2.1,30.02,West,265,1.0,4.0,51,0.00,,,0.00,Wunderground v.1.15,2013-02-18 04:22:00,
2013-02-17 23:27:00,17.3,2.2,30.02,WSW,245,4.0,5.0,51,0.00,,,0.00,Wunderground v.1.15,2013-02-18 04:27:00,
2013-02-17 23:32:00,17.3,2.2,30.02,NW,315,3.0,3.0,51,0.00,,,0.00,Wunderground v.1.15,2013-02-18 04:32:00,
2013-02-17 23:37:00,17.3,2.2,30.02,NW,315,0.0,3.0,51,0.00,,,0.00,Wunderground v.1.15,2013-02-18 04:37:00,
2013-02-17 23:42:00,17.3,2.7,30.02,WNW,289,2.0,5.0,52,0.00,,,0.00,Wunderground v.1.15,2013-02-18 04:42:00,
2013-02-17 23:47:00,17.3,2.7,30.03,NNW,335,0.0,7.0,52,0.00,,,0.00,Wunderground v.1.15,2013-02-18 04:47:00,
2013-02-17 23:52:00,17.3,2.7,30.03,NNW,337,3.0,4.0,52,0.00,,,0.00,Wunderground v.1.15,2013-02-18 04:52:00,
2013-02-17 23:57:00,17.4,2.3,30.03,West,269,3.0,8.0,51,0.00,,,0.00,Wunderground v.1.15,2013-02-18 04:57:00,